Location: Marsån
(66.4167°N, 22.2833°E)
Time: 12:02:43
(UTC+00:00)

Cosmos 2181 Rocket - Pass Details

Date: 24 February 2024
Orbit: 952 x 1014 km, 82.9° (Epoch: 15 April)

Event Time Altitude Azimuth Distance (km) Brightness Sun altitude
Exits shadow 23:53:21 51° 90° (E) 1,201 4.5 -31.7°
Drops below altitude 10° 23:59:13 10° 19° (NNE) 2,707 7.2 -31.5°
Sets 00:01:45 0° 15° (NNE) 3,651 8.1 -31.4°
